TimeEDT,TemperatureF,Dew PointF,Humidity,Sea Level PressureIn,VisibilityMPH,Wind Direction,Wind SpeedMPH,Gust SpeedMPH,PrecipitationIn,Events,Conditions,WindDirDegrees,DateUTC
12:15 AM,75.2,75.2,100,30.07,10.0,Calm,Calm,-,N/A,,Mostly Cloudy,0,2013-08-17 04:15:00
12:35 AM,75.2,75.2,100,30.07,10.0,Calm,Calm,-,N/A,,Partly Cloudy,0,2013-08-17 04:35:00
12:55 AM,75.2,75.2,100,30.07,10.0,Calm,Calm,-,N/A,,Clear,0,2013-08-17 04:55:00
1:15 AM,73.4,73.4,100,30.07,10.0,Calm,Calm,-,N/A,,Clear,0,2013-08-17 05:15:00
1:35 AM,73.4,73.4,100,30.06,9.0,Calm,Calm,-,N/A,,Clear,0,2013-08-17 05:35:00
1:55 AM,73.4,73.4,100,30.05,10.0,Calm,Calm,-,N/A,,Clear,0,2013-08-17 05:55:00
2:15 AM,73.4,73.4,100,30.05,10.0,Calm,Calm,-,N/A,,Clear,0,2013-08-17 06:15:00
2:35 AM,73.4,73.4,100,30.05,10.0,Calm,Calm,-,N/A,,Clear,0,2013-08-17 06:35:00
2:55 AM,73.4,73.4,100,30.05,10.0,Calm,Calm,-,N/A,,Clear,0,2013-08-17 06:55:00
3:15 AM,73.4,73.4,100,30.05,10.0,Calm,Calm,-,N/A,,Clear,0,2013-08-17 07:15:00
3:35 AM,73.4,73.4,100,30.05,10.0,Calm,Calm,-,N/A,,Scattered Clouds,0,2013-08-17 07:35:00
3:55 AM,73.4,73.4,100,30.04,8.0,Calm,Calm,-,N/A,,Partly Cloudy,0,2013-08-17 07:55:00
4:55 AM,73.4,73.4,100,30.04,10.0,Calm,Calm,-,N/A,,Clear,0,2013-08-17 08:55:00
5:15 AM,73.4,73.4,100,30.02,8.0,Calm,Calm,-,N/A,,Clear,0,2013-08-17 09:15:00
5:35 AM,73.4,73.4,100,30.03,9.0,Calm,Calm,-,N/A,,Clear,0,2013-08-17 09:35:00
5:55 AM,73.4,73.4,100,30.02,10.0,Calm,Calm,-,N/A,,Clear,0,2013-08-17 09:55:00
6:15 AM,73.4,73.4,100,30.03,8.0,Calm,Calm,-,N/A,,Clear,0,2013-08-17 10:15:00
6:35 AM,73.4,73.4,100,30.05,8.0,Calm,Calm,-,N/A,,Clear,0,2013-08-17 10:35:00
6:50 AM,73.4,73.4,100,30.05,10.0,Calm,Calm,-,N/A,,Mostly Cloudy,0,2013-08-17 10:50:00
7:50 AM,73.4,73.4,100,30.07,10.0,Calm,Calm,-,N/A,,Mostly Cloudy,0,2013-08-17 11:50:00
8:50 AM,77.0,77.0,100,30.07,10.0,Calm,Calm,-,N/A,,Scattered Clouds,0,2013-08-17 12:50:00
9:50 AM,-9999,-9999,N/A,30.09,10.0,Calm,Calm,-,N/A,,Scattered Clouds,0,2013-08-17 13:50:00
10:50 AM,82.4,77.0,84,30.09,10.0,Calm,Calm,-,N/A,,Mostly Cloudy,0,2013-08-17 14:50:00
11:50 AM,80.6,75.2,84,30.09,10.0,Calm,Calm,-,N/A,,Scattered Clouds,0,2013-08-17 15:50:00
12:50 PM,82.4,75.2,79,30.08,10.0,Variable,5.8,-,N/A,,Partly Cloudy,0,2013-08-17 16:50:00
1:50 PM,86.0,75.2,70,30.07,10.0,Variable,4.6,-,N/A,,Partly Cloudy,0,2013-08-17 17:50:00
2:50 PM,89.6,75.2,62,30.05,10.0,SSE,6.9,-,N/A,,Scattered Clouds,150,2013-08-17 18:50:00
3:50 PM,87.8,77.0,70,30.04,10.0,SE,11.5,-,N/A,,Partly Cloudy,130,2013-08-17 19:50:00
4:50 PM,87.8,77.0,70,30.02,10.0,SE,5.8,-,N/A,,Mostly Cloudy,140,2013-08-17 20:50:00
5:50 PM,86.0,75.2,70,30.03,10.0,East,9.2,-,N/A,,Partly Cloudy,80,2013-08-17 21:50:00
6:50 PM,84.2,75.2,74,30.04,3.0,East,11.5,-,N/A,Rain,Light Rain,90,2013-08-17 22:50:00
7:50 PM,77.0,77.0,100,30.09,2.0,South,5.8,-,N/A,Rain,Light Rain,180,2013-08-17 23:50:00
8:15 PM,73.4,73.4,100,30.12,4.0,SSW,5.8,-,0.01,Rain-Thunderstorm,Light Rain,210,2013-08-18 00:15:00
8:35 PM,73.4,73.4,100,30.12,5.0,Calm,Calm,-,0.02,Rain-Thunderstorm,Light Rain,0,2013-08-18 00:35:00
8:55 PM,73.4,73.4,100,30.10,9.0,Calm,Calm,-,0.03,,Partly Cloudy,0,2013-08-18 00:55:00
9:15 PM,75.2,75.2,100,30.11,10.0,Calm,Calm,-,N/A,Rain,Light Rain,0,2013-08-18 01:15:00
9:35 PM,75.2,75.2,100,30.12,6.0,Calm,Calm,-,N/A,Rain,Light Rain,0,2013-08-18 01:35:00
9:55 PM,75.2,75.2,100,30.12,10.0,Calm,Calm,-,N/A,Rain,Light Rain,0,2013-08-18 01:55:00
10:35 PM,73.4,73.4,100,30.13,10.0,WSW,4.6,-,N/A,Rain,Light Rain,250,2013-08-18 02:35:00
11:15 PM,73.4,73.4,100,30.13,10.0,Calm,Calm,-,N/A,,Clear,0,2013-08-18 03:15:00
11:35 PM,73.4,73.4,100,30.14,5.0,WNW,4.6,-,N/A,Rain,Light Rain,300,2013-08-18 03:35:00
11:55 PM,73.4,73.4,100,30.14,9.0,NW,6.9,-,0.01,Rain,Light Rain,320,2013-08-18 03:55:00